Wind_Speed
2 3 7 10 11 13 14 14 14 14 12 13 13 15 21 30 31 30 30 28 29 28 30 36 29 27 27 21 18 16 13 16 4 9 9 12 13 12 12 9 13 14 13
2 2 6 9 12 13 16 17 18 18 16 17 16 17 17 20 27 30 29 33 35 35 38 38 34 28 27 22 20 18 16 17 17 14 13 13 15 16 14 15 15 17 18
5 6 5 11 12 15 17 19 20 19 20 21 20 19 21 21 21 23 26 30 35 37 34 31 29 20 17 17 16 15 14 17 18 16 22 21 20 19 19 19 19 21 23
5 7 8 10 12 17 16 19 22 20 23 24 24 23 24 23 25 25 24 24 24 24 26 26 27 25 21 18 20 15 21 22 22 22 21 22 24 24 21 24 24 26 26
13 13 12 12 15 17 17 23 20 27 25 25 27 25 27 27 26 28 28 26 26 26 26 29 28 27 25 24 26 26 27 26 23 22 24 27 28 29 28 27 27 26 23
5 5 13 13 13 17 18 21 24 25 23 23 24 28 29 28 29 29 32 31 31 31 31 31 32 31 30 30 27 27 26 26 27 28 28 30 32 30 31 32 32 29 29
3 4 8 14 17 5 13 23 25 25 30 29 27 28 28 30 32 32 31 32 33 33 33 34 35 34 34 34 33 33 34 32 30 32 34 34 33 35 34 32 31 31 30
6 5 4 2 5 6 4 11 23 25 29 34 33 32 31 30 28 28 28 33 36 37 37 37 38 40 41 42 40 41 38 35 36 37 38 40 39 38 38 39 35 35 34
18 13 10 11 10 6 8 11 15 20 28 34 32 34 36 33 30 27 29 31 33 36 40 43 43 43 44 44 42 42 43 41 41 42 39 37 41 41 42 45 44 37 33
21 21 19 19 21 18 14 10 14 20 25 29 33 34 36 34 33 32 31 30 30 34 36 36 37 36 33 32 32 33 34 34 36 38 40 43 42 41 42 43 40 35 32
19 21 24 25 25 27 31 24 15 16 20 27 31 33 34 37 36 33 32 32 33 32 34 37 37 37 36 36 34 33 32 32 34 37 40 40 39 37 33 28 28 24 23
20 22 25 27 28 30 33 35 20 12 12 18 27 31 34 34 36 36 34 31 32 34 32 33 36 38 37 38 36 34 32 32 37 34 30 30 30 26 20 24 25 25 24
21 22 26 29 32 33 34 35 33 22 12 13 18 25 27 26 26 24 25 25 23 24 29 27 28 31 33 36 38 37 37 37 26 23 25 28 23 15 12 14 17 13 12
21 24 27 30 33 36 35 36 35 27 15 7 11 16 20 18 15 16 16 13 12 14 14 13 13 23 27 31 33 36 32 28 24 24 27 25 21 15 11 19 16 18 21
22 23 27 30 32 35 35 34 32 29 28 18 8 11 15 16 14 14 12 3 6 11 13 20 20 21 21 19 21 25 25 26 26 28 31 30 25 23 25 24 30 30 34
25 28 28 31 32 35 36 35 35 33 33 22 17 10 11 16 10 7 7 14 20 29 24 29 31 26 25 27 26 25 24 25 29 32 33 36 37 36 30 26 29 35 34
29 30 32 32 32 33 34 33 34 32 31 24 15 14 14 15 9 11 23 26 42 39 46 36 44 33 35 36 36 37 35 35 34 35 36 39 42 43 45 41 39 40 43
28 29 31 33 34 33 32 34 31 31 31 26 20 22 23 14 22 31 35 41 49 55 54 55 55 53 46 43 46 45 45 43 43 42 43 43 44 45 45 50 52 52 49
27 29 30 33 33 32 32 33 31 30 30 29 24 29 34 37 38 43 49 55 59 57 56 57 56 53 56 48 50 50 55 57 57 59 58 56 56 51 57 61 64 61 55
30 31 32 33 34 35 34 34 35 36 35 31 29 29 35 50 52 52 58 59 62 66 69 64 62 65 63 57 58 58 62 56 63 66 65 59 57 59 61 60 59 69 66
32 34 35 35 35 37 36 36 39 41 41 39 39 37 36 39 52 61 63 65 68 68 70 69 68 70 71 70 68 64 62 60 56 64 68 67 66 64 65 65 63 66 65
34 34 37 39 40 39 38 41 44 46 47 47 45 46 46 44 46 49 63 71 74 77 80 80 75 74 73 75 72 67 57 57 59 61 66 66 67 67 65 69 67 66 67
38 37 40 41 40 39 41 45 48 50 53 55 54 54 53 51 51 48 53 56 65 71 73 73 68 68 75 76 76 72 63 64 63 69 68 70 70 69 67 68 71 68 67
40 40 42 43 41 43 46 50 53 56 58 61 60 60 62 61 55 50 49 54 58 58 59 62 53 49 57 60 70 72 72 71 64 71 77 74 75 77 74 75 75 82 81
42 43 45 44 45 48 51 54 58 60 64 66 68 68 67 62 60 56 53 50 49 49 48 45 44 43 47 52 55 59 58 63 66 72 77 79 76 74 76 77 78 80 80
43 44 45 46 49 53 57 60 63 66 69 73 74 71 66 61 58 55 52 52 52 43 43 44 45 49 51 53 55 57 61 66 72 73 75 78 79 74 73 76 82 83 85
Wind_Direction
287 341 203 193 199 204 206 206 199 185 164 154 144 148 172 178 190 193 188 189 194 197 202 210 218 228 241 253 244 235 218 199 254 256 228 228 225 238 246 261 280 286 273
96 263 266 242 220 219 214 212 214 208 202 186 173 163 164 184 194 200 207 214 210 208 215 218 232 244 246 233 237 239 221 213 217 230 273 252 245 259 274 275 276 277 274
272 257 255 239 245 233 225 219 218 223 221 211 193 189 183 185 190 202 208 212 215 223 226 228 229 231 230 226 229 228 234 233 226 253 259 245 254 270 272 276 284 286 286
252 253 249 257 238 235 237 229 219 210 224 225 222 215 205 201 198 194 198 202 210 211 206 196 213 225 228 236 243 240 254 239 234 247 246 250 261 273 284 286 285 290 286
253 276 255 248 263 258 245 235 232 214 216 219 223 225 217 216 213 213 210 213 210 210 207 213 222 235 232 245 247 243 248 251 255 259 260 263 262 264 268 275 283 285 290
329 263 246 248 263 280 251 244 234 233 225 215 220 223 229 225 224 222 222 224 221 221 225 230 233 238 241 241 249 253 251 258 260 258 265 266 265 270 273 275 280 275 276
198 206 245 241 263 277 249 236 231 232 235 227 218 221 225 230 235 236 234 238 237 238 240 241 246 246 243 247 252 256 258 263 262 260 268 270 266 274 273 275 275 273 273
60 74 39 319 281 245 232 232 237 234 229 231 232 226 222 229 234 244 244 244 247 248 248 250 253 253 253 254 256 254 256 258 260 265 271 271 269 269 269 268 278 280 281
37 32 23 19 9 324 287 282 279 255 242 230 228 231 227 232 235 235 239 246 249 251 252 254 254 256 258 258 258 257 260 263 267 272 269 269 270 275 279 280 279 275 270
16 11 8 9 11 13 359 304 291 264 256 243 234 230 233 237 240 243 245 243 249 253 256 257 255 258 262 264 265 266 266 265 266 266 268 269 272 276 279 278 273 270 269
12 3 358 356 358 2 3 1 334 261 247 251 245 240 237 238 244 249 254 258 258 254 253 253 254 254 256 262 264 261 259 264 269 275 275 275 276 280 276 272 273 273 270
7 2 355 353 355 357 358 0 4 334 265 253 245 243 243 240 239 247 259 266 263 260 253 251 255 257 258 258 258 257 260 265 275 277 273 272 274 271 271 273 279 286 282
357 357 353 353 356 358 358 355 1 5 325 258 252 249 247 246 248 252 261 263 259 257 260 264 261 252 255 252 253 255 262 267 266 268 266 263 259 262 281 286 298 282 262
348 351 350 350 352 356 357 352 352 2 354 314 259 246 239 239 247 236 243 260 256 261 253 246 263 260 258 261 262 259 259 253 255 258 246 249 243 240 244 283 269 267 283
335 337 339 342 348 352 354 351 348 348 352 328 299 255 235 216 202 195 207 187 290 253 251 259 260 261 257 254 264 260 254 257 256 246 241 242 242 229 240 278 267 285 279
318 322 332 336 341 349 349 348 343 339 341 335 310 281 238 236 219 212 256 288 301 293 273 268 255 257 250 249 249 252 251 252 254 249 249 249 252 246 246 256 270 273 281
311 317 321 325 336 343 343 339 338 333 328 322 287 274 283 310 233 261 273 269 280 265 273 271 267 256 259 257 257 257 257 261 262 273 276 275 271 267 255 260 267 276 277
300 305 313 322 329 330 332 332 329 329 322 319 287 274 266 262 226 240 252 256 263 268 262 265 266 264 262 260 261 263 265 260 264 264 267 276 273 265 261 262 269 276 277
299 305 306 310 314 315 318 321 325 332 326 306 299 282 269 258 248 248 250 254 261 264 263 267 262 261 262 268 261 265 262 262 266 271 268 272 276 270 274 279 276 272 275
295 296 298 299 303 306 310 314 321 320 318 312 297 292 273 254 259 263 255 261 259 259 261 265 265 269 262 265 275 270 270 272 268 270 268 270 266 274 277 277 273 266 269
291 291 295 297 299 298 300 309 314 315 313 312 311 303 292 272 261 257 256 256 258 261 262 264 269 266 265 269 271 272 276 276 276 265 262 268 268 271 268 269 271 270 269
288 290 292 293 295 298 306 310 311 311 313 312 310 308 304 299 285 273 261 258 261 263 264 267 267 264 264 269 267 266 272 273 274 265 264 267 269 270 269 272 274 272 274
288 290 291 292 294 302 307 308 309 312 312 313 312 312 310 305 298 284 273 270 265 266 267 270 270 270 266 265 264 263 265 264 264 261 264 264 266 271 268 273 272 273 274
289 290 292 294 301 306 309 310 313 314 314 313 313 313 312 310 306 303 292 276 269 270 270 267 269 259 266 259 256 259 262 260 257 256 260 262 264 269 271 268 267 269 270
289 290 293 298 304 307 309 311 310 311 312 313 313 313 311 309 306 303 296 293 284 278 274 262 253 253 256 259 260 258 255 254 252 252 254 260 261 264 267 264 263 265 269
288 290 295 301 305 306 308 309 309 311 312 313 314 312 310 306 302 298 292 290 286 279 266 252 251 250 253 254 256 258 256 252 248 248 251 253 259 258 257 259 262 263 267
Height
10957 10956 10957 10958 10961 10964 10966 10968 10971 10972 10975 10978 10980 10982 10984 10986 10988 10990 10993 10995 10996 10997 10999 11001 11001 11003 11003 11004 11004 11003 11005 11006 11006 11006 11007 11007 11007 11008 11008 11007 11007 11008 11009
10959 10959 10958 10959 10959 10960 10962 10966 10968 10971 10973 10976 10979 10982 10984 10987 10989 10990 10992 10993 10994 10995 10998 10999 11000 11002 11001 11002 11002 11002 11003 11003 11004 11005 11004 11006 11005 11005 11004 11004 11004 11004 11005
10959 10959 10959 10959 10959 10959 10960 10963 10966 10969 10971 10975 10977 10980 10982 10983 10986 10987 10988 10990 10991 10993 10996 10997 10999 10999 10998 10999 11000 11001 11002 11003 11002 11002 11001 11001 11000 11001 11001 11001 11000 11000 11000
10955 10956 10957 10956 10957 10958 10958 10960 10962 10964 10967 10971 10973 10976 10979 10980 10982 10984 10986 10987 10988 10990 10991 10993 10994 10995 10997 10998 10998 10998 10998 10999 10999 10998 10997 10996 10996 10996 10996 10995 10994 10992 10991
10951 10952 10952 10953 10954 10954 10955 10957 10958 10959 10962 10965 10968 10971 10974 10976 10979 10981 10982 10984 10985 10986 10988 10991 10992 10993 10993 10994 10995 10995 10995 10995 10995 10995 10993 10991 10990 10990 10989 10988 10987 10985 10984
10948 10949 10949 10949 10949 10948 10950 10952 10954 10956 10958 10959 10962 10965 10967 10971 10975 10976 10979 10981 10983 10985 10986 10987 10988 10989 10990 10990 10990 10991 10990 10990 10991 10989 10987 10985 10983 10982 10982 10981 10980 10979 10977
10948 10948 10948 10947 10947 10945 10944 10946 10948 10950 10953 10953 10954 10956 10959 10963 10966 10969 10973 10976 10978 10980 10981 10983 10983 10984 10984 10984 10985 10985 10985 10985 10985 10984 10982 10979 10978 10976 10976 10974 10972 10973 10972
10947 10947 10946 10945 10943 10943 10943 10943 10945 10946 10946 10949 10951 10951 10953 10954 10957 10961 10965 10967 10970 10971 10972 10974 10976 10977 10978 10978 10979 10979 10978 10977 10976 10975 10973 10972 10970 10969 10967 10966 10964 10963 10962
10946 10945 10945 10944 10942 10942 10941 10941 10939 10939 10940 10941 10941 10944 10947 10947 10949 10952 10955 10958 10960 10962 10964 10965 10965 10966 10967 10968 10970 10971 10970 10969 10968 10967 10965 10964 10962 10960 10958 10957 10956 10954 10951
10945 10944 10943 10942 10942 10941 10939 10936 10934 10932 10932 10933 10935 10936 10939 10941 10944 10947 10949 10950 10952 10954 10957 10957 10959 10960 10961 10960 10960 10960 10960 10960 10959 10958 10956 10955 10954 10952 10950 10947 10945 10944 10944
10947 10944 10941 10939 10938 10936 10932 10929 10925 10922 10924 10925 10927 10929 10930 10933 10937 10939 10940 10942 10943 10945 10947 10948 10950 10952 10952 10952 10952 10951 10952 10952 10952 10950 10949 10947 10945 10944 10941 10937 10935 10935 10935
10947 10945 10940 10937 10935 10933 10928 10923 10920 10918 10919 10919 10920 10922 10923 10925 10926 10928 10931 10932 10934 10936 10937 10937 10939 10941 10942 10943 10944 10944 10944 10942 10940 10939 10937 10935 10935 10935 10934 10931 10929 10927 10926
10946 10943 10940 10936 10932 10928 10924 10920 10917 10915 10914 10912 10912 10915 10918 10920 10922 10924 10925 10926 10926 10928 10930 10930 10930 10929 10931 10931 10933 10934 10934 10933 10929 10929 10928 10926 10926 10926 10925 10925 10926 10926 10926
10944 10941 10939 10935 10931 10926 10922 10918 10915 10913 10911 10910 10910 10910 10912 10916 10919 10919 10920 10922 10923 10924 10922 10921 10922 10923 10922 10924 10925 10924 10925 10924 10921 10919 10920 10920 10919 10919 10921 10922 10923 10922 10922
10942 10941 10937 10933 10929 10926 10922 10918 10914 10911 10910 10910 10908 10908 10910 10910 10912 10915 10916 10918 10918 10919 10918 10918 10916 10915 10915 10913 10914 10916 10917 10916 10914 10913 10912 10913 10912 10911 10911 10914 10916 10917 10915
10938 10935 10933 10930 10927 10922 10919 10917 10914 10909 10906 10906 10906 10906 10905 10908 10911 10913 10914 10915 10913 10911 10908 10911 10908 10908 10909 10908 10906 10904 10905 10906 10907 10906 10904 10903 10904 10904 10902 10902 10902 10902 10904
10933 10930 10927 10926 10923 10920 10918 10915 10913 10908 10906 10903 10903 10904 10905 10908 10908 10908 10908 10904 10902 10899 10901 10899 10901 10897 10900 10900 10899 10898 10897 10896 10897 10898 10897 10896 10893 10892 10891 10890 10888 10888 10888
10929 10927 10923 10920 10918 10916 10914 10913 10909 10906 10902 10901 10899 10899 10900 10902 10901 10898 10897 10890 10886 10886 10887 10887 10888 10890 10890 10889 10891 10890 10889 10888 10887 10886 10885 10884 10884 10882 10881 10879 10876 10874 10873
10924 10922 10920 10917 10915 10913 10910 10908 10904 10901 10898 10896 10896 10895 10894 10891 10889 10885 10884 10879 10879 10874 10874 10875 10876 10877 10878 10877 10877 10877 10877 10877 10875 10873 10871 10870 10868 10868 10868 10866 10864 10861 10860
10918 10917 10915 10912 10910 10907 10904 10900 10897 10895 10893 10889 10887 10884 10882 10879 10875 10874 10869 10865 10863 10862 10860 10861 10861 10861 10862 10861 10862 10862 10861 10861 10859 10855 10854 10853 10851 10850 10849 10847 10845 10843 10841
10911 10908 10905 10904 10902 10900 10897 10892 10888 10885 10882 10878 10874 10871 10868 10865 10861 10857 10854 10849 10846 10843 10843 10842 10844 10845 10845 10846 10844 10843 10839 10842 10839 10836 10834 10834 10833 10831 10828 10826 10826 10825 10823
10903 10901 10898 10896 10893 10890 10886 10882 10879 10875 10871 10866 10862 10857 10852 10850 10845 10839 10836 10831 10828 10826 10823 10822 10824 10824 10825 10825 10826 10825 10823 10820 10819 10817 10817 10815 10815 10812 10810 10808 10807 10805 10804
10894 10891 10889 10886 10884 10881 10877 10873 10868 10864 10859 10852 10847 10841 10835 10831 10825 10823 10819 10812 10809 10806 10803 10800 10800 10799 10797 10800 10801 10804 10806 10804 10802 10797 10797 10797 10795 10793 10793 10791 10789 10786 10783
10884 10881 10878 10876 10873 10869 10866 10861 10855 10850 10845 10838 10832 10825 10817 10810 10805 10800 10795 10791 10789 10786 10784 10783 10782 10780 10776 10778 10779 10780 10782 10782 10781 10780 10778 10778 10776 10776 10774 10772 10768 10764 10762
10873 10870 10867 10865 10863 10859 10855 10849 10842 10837 10830 10823 10815 10808 10800 10793 10784 10779 10773 10768 10766 10765 10764 10763 10762 10762 10761 10761 10760 10761 10762 10762 10761 10760 10758 10757 10755 10753 10751 10748 10744 10740 10737
10863 10860 10857 10854 10851 10846 10841 10836 10830 10823 10814 10805 10796 10788 10780 10774 10767 10761 10757 10752 10748 10747 10746 10746 10746 10746 10744 10743 10743 10742 10742 10741 10739 10738 10736 10734 10732 10728 10726 10723 10719 10714 10712